Date String (YYYY-MM-DD hh:mm:ss) UTC,Instrument flags,Ambient pressure (hPa),Sample flow (lpm),Bypass flow (lpm),Sample temperature (°C),Ambient temperature (°C),ASC tube jacket temperature (°C),LED temperature (°C),Box temperature (°C),Sample RH (%),Span deviation,Mass concentration (μg/m³),Mass concentration (μg/m³),Mass concentration (μg/m³)
DateTimeUTC,F1_M11,P_M11,Q1_M11,Q2_M11,T1_M11,T2_M11,T3_M11,T4_M11,T5_M11,U1_M11,ZSPAN_M11,X0_M11,X2_M11,X1_M11
2021-10-23 04:00:00,,0822.1,5.01,0.00,29.8,28.7,00.0,39.0,31.5,08.0,0000.0,0009.86,0003.23,0001.75
2021-10-23 04:01:00,,0822.1,5.00,0.00,29.8,28.7,00.0,39.0,31.5,08.0,0000.0,0009.82,0003.22,0001.77
2021-10-23 04:02:00,,0822.1,4.99,0.00,29.8,28.8,00.0,39.0,31.5,08.0,0000.0,0010.19,0003.21,0001.77
2021-10-23 04:03:00,,0822.0,5.01,0.00,29.8,28.7,00.0,39.0,31.4,08.0,0000.0,0010.15,0003.17,0001.78
2021-10-23 04:04:00,,0821.9,5.00,0.00,29.8,28.7,00.0,39.0,31.4,08.0,0000.0,0009.57,0003.16,0001.77
2021-10-23 04:05:00,,0822.1,5.00,0.00,29.8,28.7,00.0,39.0,31.4,08.0,0000.0,0009.89,0003.16,0001.78
2021-10-23 04:06:00,,0822.1,5.00,0.00,29.8,28.7,00.0,39.0,31.5,08.1,0000.0,0010.44,0003.19,0001.81
2021-10-23 04:07:00,,0822.1,5.00,0.00,29.8,28.8,00.0,39.0,31.5,08.0,0000.0,0010.49,0003.23,0001.81
2021-10-23 04:08:00,,0822.0,4.99,0.00,29.8,28.8,00.0,39.0,31.5,08.0,0000.0,0011.09,0003.28,0001.81
2021-10-23 04:09:00,,0821.9,5.01,0.00,29.8,28.8,00.0,39.0,31.5,08.0,0000.0,0010.74,0003.26,0001.80
2021-10-23 04:10:00,,0822.0,5.00,0.00,29.8,28.8,00.0,39.0,31.4,07.9,0000.0,0011.72,0003.24,0001.80
2021-10-23 04:11:00,,0822.2,4.98,0.00,29.8,28.7,00.0,39.0,31.4,07.8,0000.0,0011.47,0003.21,0001.78
2021-10-23 04:12:00,,0822.0,5.00,0.00,29.8,28.7,00.0,39.0,31.4,07.8,0000.0,0011.38,0003.18,0001.74
2021-10-23 04:13:00,,0821.9,5.01,0.00,29.8,28.7,00.0,39.0,31.4,07.8,0000.0,0010.35,0003.08,0001.70
2021-10-23 04:14:00,,0821.9,5.00,0.00,29.8,28.7,00.0,39.0,31.4,07.8,0000.0,0009.78,0002.96,0001.66
2021-10-23 04:15:00,,0822.1,5.01,0.00,29.8,28.7,00.0,39.0,31.4,07.8,0000.0,0009.62,0002.83,0001.64
2021-10-23 04:16:00,,0822.3,4.99,0.00,29.8,28.7,00.0,38.9,31.4,07.7,0000.0,0009.00,0002.76,0001.59
2021-10-23 04:17:00,,0821.8,5.00,0.00,29.8,28.7,00.0,38.9,31.4,07.8,0000.0,0008.42,0002.67,0001.55
2021-10-23 04:18:00,,0821.8,4.99,0.00,29.8,28.7,00.0,38.9,31.4,07.7,0000.0,0007.98,0002.55,0001.52
2021-10-23 04:19:00,,0821.8,5.01,0.00,29.8,28.7,00.0,38.9,31.4,07.7,0000.0,0006.75,0002.38,0001.48
2021-10-23 04:20:00,,0821.8,4.99,0.00,29.8,28.7,00.0,38.9,31.4,07.7,0000.0,0006.39,0002.27,0001.45
2021-10-23 04:21:00,,0821.8,5.01,0.00,29.8,28.7,00.0,38.9,31.4,07.7,0000.0,0004.50,0002.18,0001.41
2021-10-23 04:22:00,,0821.8,5.00,0.00,29.8,28.7,00.0,38.9,31.4,07.7,0000.0,0004.25,0002.22,0001.40
2021-10-23 04:23:00,,0821.8,4.99,0.00,29.8,28.7,00.0,38.9,31.4,07.7,0000.0,0004.22,0002.18,0001.39
2021-10-23 04:24:00,,0821.7,5.00,0.00,29.8,28.7,00.0,38.9,31.4,07.7,0000.0,0005.18,0002.20,0001.38
2021-10-23 04:25:00,,0821.8,5.00,0.00,29.8,28.6,00.0,38.9,31.4,07.7,0000.0,0005.86,0002.18,0001.37
2021-10-23 04:26:00,,0821.8,5.01,0.00,29.7,28.7,00.0,38.9,31.4,07.7,0000.0,0006.12,0002.16,0001.35
2021-10-23 04:27:00,,0821.8,4.99,0.00,29.7,28.7,00.0,38.9,31.4,07.7,0000.0,0007.51,0002.19,0001.37
2021-10-23 04:28:00,,0821.8,5.00,0.00,29.7,28.6,00.0,38.9,31.4,07.8,0000.0,0008.20,0002.19,0001.37
2021-10-23 04:29:00,,0821.8,5.00,0.00,29.7,28.6,00.0,38.9,31.4,07.8,0000.0,0008.32,0002.15,0001.37
2021-10-23 04:30:00,,0821.8,5.01,0.00,29.7,28.6,00.0,38.9,31.4,07.8,0000.0,0008.22,0002.09,0001.37
2021-10-23 04:31:00,,0821.7,4.99,0.00,29.7,28.6,00.0,38.9,31.4,07.8,0000.0,0008.10,0002.07,0001.38
2021-10-23 04:32:00,,0821.7,5.00,0.00,29.7,28.6,00.0,38.9,31.3,07.7,0000.0,0008.22,0002.10,0001.37
2021-10-23 04:33:00,,0821.7,5.00,0.00,29.7,28.6,00.0,38.9,31.3,07.7,0000.0,0008.54,0002.09,0001.36
2021-10-23 04:34:00,,0821.7,5.00,0.00,29.7,28.6,00.0,38.9,31.4,07.7,0000.0,0008.81,0002.10,0001.36
2021-10-23 04:35:00,,0821.7,5.01,0.00,29.7,28.6,00.0,38.9,31.4,07.7,0000.0,0008.36,0002.09,0001.36
2021-10-23 04:36:00,,0821.6,5.00,0.00,29.7,28.6,00.0,38.9,31.4,07.7,0000.0,0008.12,0002.11,0001.35
2021-10-23 04:37:00,,0821.6,5.01,0.00,29.7,28.6,00.0,38.9,31.4,07.7,0000.0,0007.95,0002.14,0001.36
2021-10-23 04:38:00,,0821.6,4.99,0.00,29.7,28.6,00.0,38.9,31.4,07.8,0000.0,0007.60,0002.09,0001.34
2021-10-23 04:39:00,,0821.5,5.01,0.00,29.7,28.6,00.0,38.9,31.4,07.8,0000.0,0007.27,0002.05,0001.33
2021-10-23 04:40:00,,0821.5,4.99,0.00,29.7,28.6,00.0,38.9,31.4,07.8,0000.0,0007.01,0002.08,0001.33
2021-10-23 04:41:00,,0821.6,5.00,0.00,29.7,28.6,00.0,38.9,31.4,07.8,0000.0,0006.93,0002.09,0001.32
2021-10-23 04:42:00,,0821.5,5.01,0.00,29.7,28.6,00.0,38.9,31.4,07.8,0000.0,0006.85,0002.07,0001.31
2021-10-23 04:43:00,,0821.5,5.01,0.00,29.7,28.7,00.0,38.9,31.4,08.0,0000.0,0006.95,0002.14,0001.31
2021-10-23 04:44:00,,0821.5,5.00,0.00,29.7,28.7,00.0,38.9,31.4,08.0,0000.0,0006.62,0002.16,0001.34
2021-10-23 04:45:00,,0821.5,4.98,0.00,29.7,28.6,00.0,38.8,31.3,07.9,0000.0,0006.14,0002.16,0001.35
2021-10-23 04:46:00,,0821.5,5.00,0.00,29.6,28.6,00.0,38.8,31.3,07.9,0000.0,0006.69,0002.18,0001.35
2021-10-23 04:47:00,,0821.5,4.99,0.00,29.6,28.5,00.0,38.8,31.2,07.9,0000.0,0007.82,0002.13,0001.35
2021-10-23 04:48:00,,0821.6,5.01,0.00,29.6,28.6,00.0,38.8,31.2,07.8,0000.0,0008.92,0002.12,0001.35
2021-10-23 04:49:00,,0821.5,4.99,0.00,29.6,28.6,00.0,38.8,31.2,07.8,0000.0,0008.68,0002.16,0001.35
2021-10-23 04:50:00,,0821.5,5.00,0.00,29.6,28.6,00.0,38.8,31.3,07.8,0000.0,0008.05,0002.15,0001.35
2021-10-23 04:51:00,,0821.4,5.00,0.00,29.6,28.6,00.0,38.8,31.3,07.8,0000.0,0008.12,0002.16,0001.36
2021-10-23 04:52:00,,0821.4,5.02,0.00,29.6,28.6,00.0,38.8,31.3,07.8,0000.0,0008.32,0002.15,0001.37
2021-10-23 04:53:00,,0821.4,5.00,0.00,29.6,28.6,00.0,38.8,31.2,07.8,0000.0,0009.61,0002.22,0001.38
2021-10-23 04:54:00,,0821.4,5.00,0.00,29.6,28.5,00.0,38.8,31.2,07.8,0000.0,0010.35,0002.14,0001.38
2021-10-23 04:55:00,,0821.4,5.00,0.00,29.6,28.5,00.0,38.8,31.2,07.8,0000.0,0010.30,0002.11,0001.37
2021-10-23 04:56:00,,0821.4,5.00,0.00,29.6,28.5,00.0,38.8,31.2,07.8,0000.0,0010.73,0002.12,0001.36
2021-10-23 04:57:00,,0821.4,5.02,0.00,29.6,28.5,00.0,38.8,31.2,07.8,0000.0,0010.58,0002.14,0001.36
2021-10-23 04:58:00,,0821.4,4.99,0.00,29.6,28.5,00.0,38.8,31.2,07.8,0000.0,0009.98,0002.25,0001.37
2021-10-23 04:59:00,,0821.4,5.01,0.00,29.6,28.5,00.0,38.8,31.2,07.8,0000.0,0009.59,0002.31,0001.38
